Back to catalog

STARLINK-30505

AliveCommunicationsVLEO
NORAD 57972·PAYLOAD·🇺🇸 United States

Launched Sep 30, 2023 from Cape Canaveral Space Force Station

Loading…

Next Passes (next 24 hours)

TLE

FreshSource: CelesTrak SupGP

Epoch: Sep 14, 2026, 22:43 UTC

1 57972C 23151J   26257.94701389 -.00019230  00000+0 -69653-3 0  2570
2 57972  43.0040 347.4362 0001750 268.6998 237.7527 15.27587150    18

Track STARLINK-30505 in real time with AllMySat

Download on the App Store